Location: Bartshausen
(51.8454°N, 9.8167°E)
Time: 00:17:14
(UTC+00:00)

Cosmos 2278 Rocket - Pass Details

Date: 08 November 2025
Orbit: 841 x 843 km, 71.0° (Epoch: 04 December)

Event Time Altitude Azimuth Distance (km) Brightness Sun altitude
Exits shadow 05:11:32 11° 315° (NW) 2,436 4.1 -11.9°
Maximum altitude 05:16:25 33° 254° (WSW) 1,381 2.9 -11.2°
Drops below altitude 10° 05:21:24 10° 191° (SSW) 2,455 4.7 -10.5°
Sets 05:24:02 0° 182° (S) 3,385 5.5 -10.1°
